{"data":{"norad_id":45754,"intl_designator":"2020-038AA","name":"STARLINK-1477","alt_names":[],"object_type":"PAYLOAD","status":"ACTIVE","operator":null,"country":"US","launch_date":"2020-06-13","launch_site_code":"AFETR","launch_vehicle":null,"mission":null,"orbit_class":"UNKNOWN","rcs_meters":null,"size_class":null,"mass_kg":null,"dimensions":null,"purposes":["comms"],"wikipedia_slug":null,"has_3d_model":false,"image_url":null,"decayed_at":null,"tle_current":{"epoch":"2026-05-24T15:06:12.007296Z","epoch_age_seconds":100235,"freshness":"FRESH","line1":"1 45754U 20038AA  26144.62930564  .00022516  00000+0  11008-2 0  9997","line2":"2 45754  53.0462 226.7516 0000530 292.3381  67.7556 15.18158240328051","mean_motion":15.1815824,"eccentricity":5.3e-5,"inclination_deg":53.0462,"raan_deg":226.7516,"arg_perigee_deg":292.3381,"mean_anomaly_deg":67.7556,"bstar":0.0011008,"rev_number":32805,"period_min":94.851772500342,"perigee_km":511.04189356503,"apogee_km":511.77218523321,"semimajor_km":6889.5440393991,"source":"CELESTRAK","updated_at":"2026-05-25T13:38:16.434023Z"}}}